Retour au catalogue

FENGYUN 1C DEB

ActifPO
NORAD 31566·DEBRIS·🇨🇳 China

Lancé May 10, 1999 depuis Taiyuan Satellite Launch Center

Loading…

Prochains Passages (prochaines 24 heures)

TLE

FraisSource: Space-Track

Époque: Sep 13, 2026, 22:28 UTC

1 31566U 99025BZH 26256.93679078  .00003264  00000-0  10429-2 0  9999
2 31566  98.9359 332.4241 0023207 259.5905 158.5631 14.40238447  3463

Suivez FENGYUN 1C DEB en temps réel avec AllMySat

Download on the App Store